When you browse on this site, cookies collect data to enhance your experience and personalize the content and advertising you see.
Visit our Privacy Policy to learn more. By continuing to use the site, you agree to this use of cookies and data.
  • în România
  • Lista ţărilor
  • Pe 7 zile
  • Temperatura apei
  • Meteo pe hartă
  • Widget-uri
  • user-avatar
    Intrare

    Meteo pe oră la Mosul

    Astăzi, 22 August, Joi

    Timp Temperatura Precipitaţii Vânt Presiune Umiditate
    00:00 +32°C° 0 mm 6 m/s 727 mmHg 21%
    01:00 +30°C° 0 mm 6 m/s 727 mmHg 24%
    02:00 +29°C° 0 mm 6 m/s 726 mmHg 26%
    03:00 +28°C° 0 mm 6 m/s 726 mmHg 29%
    04:00 +28°C° 0 mm 6 m/s 726 mmHg 32%
    05:00 +28°C° 0 mm 5 m/s 726 mmHg 35%
    06:00 +27°C° 0 mm 5 m/s 726 mmHg 38%
    07:00 +30°C° 0 mm 5 m/s 727 mmHg 32%
    08:00 +33°C° 0 mm 5 m/s 727 mmHg 27%
    09:00 +36°C° 0 mm 5 m/s 727 mmHg 21%
    10:00 +39°C° 0 mm 5 m/s 727 mmHg 18%
    11:00 +41°C° 0 mm 5 m/s 727 mmHg 14%
    12:00 +42°C° 0 mm 5 m/s 727 mmHg 10%
    13:00 +43°C° 0 mm 5 m/s 726 mmHg 9%
    14:00 +45°C° 0 mm 5 m/s 726 mmHg 8%
    15:00 +45°C° 0 mm 6 m/s 726 mmHg 8%
    16:00 +44°C° 0 mm 6 m/s 726 mmHg 9%
    17:00 +42°C° 0 mm 6 m/s 725 mmHg 11%
    18:00 +41°C° 0 mm 6 m/s 725 mmHg 12%
    19:00 +39°C° 0 mm 6 m/s 725 mmHg 15%
    20:00 +36°C° 0 mm 5 m/s 725 mmHg 18%
    21:00 +34°C° 0 mm 4 m/s 726 mmHg 21%
    22:00 +33°C° 0 mm 4 m/s 726 mmHg 23%
    23:00 +32°C° 0 mm 4 m/s 725 mmHg 25%

    Mâine, 23 August, Vineri

    Timp Temperatura Precipitaţii Vânt Presiune Umiditate
    00:00 +32°C° 0 mm 4 m/s 725 mmHg 27%
    01:00 +30°C° 0 mm 4 m/s 725 mmHg 29%
    02:00 +29°C° 0 mm 4 m/s 725 mmHg 30%
    03:00 +29°C° 0 mm 3 m/s 725 mmHg 32%
    04:00 +28°C° 0 mm 3 m/s 725 mmHg 32%
    05:00 +28°C° 0 mm 3 m/s 725 mmHg 33%
    06:00 +27°C° 0 mm 2 m/s 725 mmHg 33%
    07:00 +30°C° 0 mm 2 m/s 725 mmHg 28%
    08:00 +33°C° 0 mm 1 m/s 726 mmHg 24%
    09:00 +36°C° 0 mm 1 m/s 726 mmHg 19%
    10:00 +39°C° 0 mm 2 m/s 726 mmHg 17%
    11:00 +42°C° 0 mm 3 m/s 727 mmHg 15%
    12:00 +43°C° 0 mm 4 m/s 727 mmHg 12%
    13:00 +45°C° 0 mm 5 m/s 726 mmHg 11%
    14:00 +46°C° 0 mm 6 m/s 726 mmHg 10%
    15:00 +46°C° 0 mm 6 m/s 726 mmHg 9%
    16:00 +45°C° 0 mm 6 m/s 726 mmHg 10%
    17:00 +43°C° 0 mm 5 m/s 726 mmHg 11%
    18:00 +42°C° 0 mm 5 m/s 725 mmHg 11%
    19:00 +38°C° 0 mm 4 m/s 726 mmHg 14%
    20:00 +36°C° 0 mm 3 m/s 726 mmHg 16%
    21:00 +32°C° 0 mm 2 m/s 726 mmHg 19%
    22:00 +31°C° 0 mm 2 m/s 726 mmHg 20%
    23:00 +30°C° 0 mm 2 m/s 726 mmHg 20%

    Poimâine, 24 August, Sâmbătă

    Timp Temperatura Precipitaţii Vânt Presiune Umiditate
    00:00 +30°C° 0 mm 2 m/s 726 mmHg 21%
    01:00 +29°C° 0 mm 2 m/s 726 mmHg 22%
    02:00 +29°C° 0 mm 1 m/s 726 mmHg 23%
    03:00 +28°C° 0 mm 1 m/s 726 mmHg 24%
    04:00 +28°C° 0 mm 1 m/s 726 mmHg 24%
    05:00 +28°C° 0 mm 1 m/s 726 mmHg 25%
    06:00 +28°C° 0 mm 1 m/s 727 mmHg 25%
    07:00 +31°C° 0 mm 1 m/s 727 mmHg 21%
    08:00 +35°C° 0 mm 2 m/s 728 mmHg 18%
    09:00 +39°C° 0 mm 2 m/s 728 mmHg 14%
    10:00 +40°C° 0 mm 1 m/s 728 mmHg 13%
    11:00 +42°C° 0 mm 1 m/s 728 mmHg 11%
    12:00 +44°C° 0 mm 1 m/s 728 mmHg 10%
    13:00 +45°C° 0 mm 2 m/s 728 mmHg 10%
    14:00 +46°C° 0 mm 2 m/s 728 mmHg 9%
    15:00 +47°C° 0 mm 3 m/s 727 mmHg 9%
    16:00 +46°C° 0 mm 3 m/s 727 mmHg 9%
    17:00 +45°C° 0 mm 3 m/s 727 mmHg 10%
    18:00 +43°C° 0 mm 2 m/s 727 mmHg 10%
    19:00 +41°C° 0 mm 2 m/s 727 mmHg 12%
    20:00 +39°C° 0 mm 1 m/s 727 mmHg 13%
    21:00 +35°C° 0 mm 1 m/s 727 mmHg 15%
    22:00 +35°C° 0 mm 1 m/s 727 mmHg 16%
    23:00 +34°C° 0 mm 1 m/s 726 mmHg 16%

    25 August, Duminică

    Timp Temperatura Precipitaţii Vânt Presiune Umiditate
    00:00 +33°C° 0 mm 1 m/s 726 mmHg 17%
    01:00 +34°C° 0 mm 2 m/s 726 mmHg 17%
    02:00 +34°C° 0 mm 2 m/s 726 mmHg 18%
    03:00 +32°C° 0 mm 2 m/s 726 mmHg 18%
    04:00 +32°C° 0 mm 2 m/s 726 mmHg 19%
    05:00 +32°C° 0 mm 2 m/s 726 mmHg 19%
    06:00 +31°C° 0 mm 2 m/s 726 mmHg 20%
    07:00 +36°C° 0 mm 2 m/s 726 mmHg 17%
    08:00 +39°C° 0 mm 3 m/s 727 mmHg 14%
    09:00 +43°C° 0 mm 3 m/s 727 mmHg 11%
    10:00 +45°C° 0 mm 3 m/s 727 mmHg 10%
    11:00 +48°C° 0 mm 4 m/s 727 mmHg 9%
    12:00 +49°C° 0 mm 4 m/s 727 mmHg 8%
    13:00 +50°C° 0 mm 4 m/s 726 mmHg 7%
    14:00 +50°C° 0 mm 4 m/s 726 mmHg 7%
    15:00 +52°C° 0 mm 5 m/s 726 mmHg 7%
    16:00 +50°C° 0 mm 4 m/s 726 mmHg 7%
    17:00 +49°C° 0 mm 4 m/s 725 mmHg 7%
    18:00 +48°C° 0 mm 4 m/s 725 mmHg 7%
    19:00 +45°C° 0 mm 4 m/s 725 mmHg 9%
    20:00 +43°C° 0 mm 5 m/s 726 mmHg 10%
    21:00 +40°C° 0 mm 5 m/s 726 mmHg 12%
    22:00 +40°C° 0 mm 5 m/s 726 mmHg 13%
    23:00 +39°C° 0 mm 5 m/s 726 mmHg 13%

    26 August, Luni

    Timp Temperatura Precipitaţii Vânt Presiune Umiditate
    00:00 +37°C° 0 mm 5 m/s 726 mmHg 14%
    01:00 +36°C° 0 mm 5 m/s 726 mmHg 15%
    02:00 +36°C° 0 mm 4 m/s 725 mmHg 15%
    03:00 +35°C° 0 mm 4 m/s 725 mmHg 15%
    04:00 +34°C° 0 mm 4 m/s 725 mmHg 16%
    05:00 +34°C° 0 mm 3 m/s 726 mmHg 17%
    06:00 +33°C° 0 mm 3 m/s 726 mmHg 17%
    07:00 +36°C° 0 mm 3 m/s 726 mmHg 15%
    08:00 +39°C° 0 mm 3 m/s 726 mmHg 13%
    09:00 +41°C° 0 mm 2 m/s 727 mmHg 10%
    10:00 +43°C° 0 mm 2 m/s 727 mmHg 10%
    11:00 +46°C° 0 mm 2 m/s 727 mmHg 9%
    12:00 +47°C° 0 mm 1 m/s 727 mmHg 8%
    13:00 +48°C° 0 mm 3 m/s 727 mmHg 8%
    14:00 +50°C° 0 mm 4 m/s 726 mmHg 8%
    15:00 +50°C° 0 mm 5 m/s 726 mmHg 8%
    16:00 +49°C° 0 mm 6 m/s 726 mmHg 8%
    17:00 +48°C° 0 mm 6 m/s 726 mmHg 9%
    18:00 +47°C° 0 mm 6 m/s 725 mmHg 10%
    19:00 +45°C° 0 mm 6 m/s 726 mmHg 11%
    20:00 +42°C° 0 mm 6 m/s 726 mmHg 13%
    21:00 +40°C° 0 mm 6 m/s 726 mmHg 14%
    22:00 +39°C° 0 mm 6 m/s 726 mmHg 14%
    23:00 +37°C° 0 mm 5 m/s 726 mmHg 15%

    27 August, Marţi

    Timp Temperatura Precipitaţii Vânt Presiune Umiditate
    00:00 +35°C° 0 mm 5 m/s 726 mmHg 16%
    01:00 +35°C° 0 mm 5 m/s 726 mmHg 16%
    02:00 +34°C° 0 mm 5 m/s 726 mmHg 17%
    03:00 +33°C° 0 mm 4 m/s 726 mmHg 18%
    04:00 +33°C° 0 mm 4 m/s 726 mmHg 19%
    05:00 +32°C° 0 mm 4 m/s 726 mmHg 20%
    06:00 +31°C° 0 mm 3 m/s 726 mmHg 20%
    07:00 +35°C° 0 mm 3 m/s 726 mmHg 18%
    08:00 +37°C° 0 mm 3 m/s 726 mmHg 15%
    09:00 +40°C° 0 mm 3 m/s 727 mmHg 12%
    10:00 +43°C° 0 mm 3 m/s 727 mmHg 11%
    11:00 +45°C° 0 mm 3 m/s 727 mmHg 9%
    12:00 +47°C° 0 mm 4 m/s 727 mmHg 8%
    13:00 +48°C° 0 mm 5 m/s 727 mmHg 8%
    14:00 +48°C° 0 mm 6 m/s 726 mmHg 8%
    15:00 +50°C° 0 mm 7 m/s 726 mmHg 8%
    16:00 +48°C° 0 mm 6 m/s 726 mmHg 9%
    17:00 +47°C° 0 mm 6 m/s 726 mmHg 10%
    18:00 +46°C° 0 mm 5 m/s 726 mmHg 11%
    19:00 +42°C° 0 mm 5 m/s 726 mmHg 13%
    20:00 +40°C° 0 mm 5 m/s 726 mmHg 15%
    21:00 +37°C° 0 mm 4 m/s 726 mmHg 17%
    22:00 +36°C° 0 mm 4 m/s 726 mmHg 18%
    23:00 +35°C° 0 mm 4 m/s 726 mmHg 19%
    Arată mai mult